Location: Boneville
(33.4331°N, 82.4399°W)
Time: 22:55:45
(UTC+00:00)

Hubble Space Telescope - Pass Details

Date: 28 September 2024
Orbit: 504 x 508 km, 28.5° (Epoch: 06 October)

Event Time Altitude Azimuth Distance (km) Brightness Sun altitude
Exits shadow 09:01:10 12° 126° (SE) 1,588 3.5 -29.8°
Drops below altitude 10° 09:01:39 10° 121° (ESE) 1,697 3.8 -29.7°
Sets 09:04:32 0° 99° (E) 2,582 5.2 -29.2°
